星链-6277 (STARLINK-6277 )

导读 | 豆包AI

STARLINK-6277是美国太空探索技术公司SpaceX于2023年5月4日发射的星链(Starlink)低轨互联网卫星,归属于星链卫星互联网星座,任务是为全球提供高速宽带互联网服务。星链星座通过大规模组网实现全球覆盖,该卫星进入近地轨道后,持续推进星座部署,提升星链系统网络覆盖能力与服务稳定性,目前已在轨运行近3年。

Basic Information
目录编号:
56399
目录名称:
STARLINK-6277
国际标识:
2023-061AB
轨道中心:
EARTH
卫星名称:
星链-6277
卫星全名:
星链-6277 (STARLINK-6277 )
卫星状态:
在轨 (已飞行1092 天)
发射日期:
2023-05-04 UTC
国别 :
美国 (US)
星等 :
--
Orbit Information
数据来源 国际轨道数据 AOE轨道数据
星历时间 2026-04-29T17:43:56+0800
22小时前
查看轨道信息
2026-04-28T08:00:00+0800
2天前
查看轨道信息
半长轴 6863.22km 6863.664km
偏心率 0.0001231 0.0001731
轨道倾角 43.003° 43.000°
近地点辐角 295.601° 276.058°
升交点赤经 260.392° 268.324°
平近点角 64.471° 268.944°
近地点 484.238km 484.338km
远地点 485.928km 486.716km
周期 94.309分钟 94.318分钟
每日圈数 15.269011 15.26753
Detailed Information
固有亮度:
5
最大亮度:
2.5
卫星平台:
Starlink v1.5
覆盖范围:
全球
运营商:
太空探索技术公司
运营商所在国:
美国
制造商(研发单位):
太空探索技术公司
制造商所在国:
美国
使用方式:
暂无
Satellite Introduction
星链(Starlink)计划是由太空探索技术公司(SpaceX)提出的一个巨型低轨卫星互联网星座项目,计划在2019年至2024年间在太空搭建由约1.2万颗卫星组成的“星链”网络,其中1584颗将部署在地球上空550千米处的近地轨道,并从2020年开始工作。该卫星仍在工作。
2D Orbit Map
3D Orbit Map
Orbit Altitude Analysis Chart
Orbit Inclination Analysis Chart
Orbit Comprehensive Analysis Chart
View Comprehensive Chart